星链-5567 (STARLINK-5567 )

导读

STARLINK-5567是美国太空探索技术公司SpaceX星链星座的组成卫星,于北京时间2023年1月26日发射入轨,星链星座旨在为全球用户提供覆盖广泛的低轨卫星互联网服务,该卫星承担星链网络的通信转发任务,属于星链卫星的批量部署批次,进一步扩充了星链低轨通信星座的在轨规模。

基本信息
目录编号:
55377
目录名称:
STARLINK-5567
国际标识:
2023-013AY
轨道中心:
EARTH
卫星名称:
星链-5567
卫星全名:
星链-5567 (STARLINK-5567 )
卫星状态:
在轨 (已飞行1236 天)
发射日期:
2023-01-26 UTC
国别 :
美国 (US)
星等 :
--
轨道信息
数据来源 国际轨道数据 AOE轨道数据
星历时间 2026-06-14T22:43:48+0800
11小时前
查看轨道信息
2026-06-15T01:00:00+0800
9小时前
查看轨道信息
半长轴 6861.209km 6861.206km
偏心率 0.0000954 0.0001198
轨道倾角 43.003° 43.002°
近地点辐角 270.388° 294.308°
升交点赤经 130.971° 130.437°
平近点角 89.686° 226.471°
近地点 482.417km 482.247km
远地点 483.727km 483.891km
周期 94.267分钟 94.267分钟
每日圈数 15.275725 15.275736
详细信息
固有亮度:
5
最大亮度:
2.5
卫星平台:
Starlink v1.5
覆盖范围:
全球
运营商:
太空探索技术公司
运营商所在国:
美国
制造商(研发单位):
太空探索技术公司
制造商所在国:
美国
使用方式:
暂无
卫星简介
星链(Starlink)计划是由太空探索技术公司(SpaceX)提出的一个巨型低轨卫星互联网星座项目,计划在2019年至2024年间在太空搭建由约1.2万颗卫星组成的“星链”网络,其中1584颗将部署在地球上空550千米处的近地轨道,并从2020年开始工作。该卫星仍在工作。
2D轨道图
3D轨道图
轨道高度分析图
轨道倾角分析图
轨道综合分析图
查看轨道综合分析图